Data No,UTC Date,UTC Time,Latitude,Longitude,Course(deg),Temp(degC),Sal(psu)
544,2023/12/11,9:03,42-36.80N,141-36.97E,208,7.741,
545,2023/12/11,9:04,42-36.54N,141-36.93E,173,7.779,
546,2023/12/11,9:05,42-36.33N,141-37.11E,138,7.95,
547,2023/12/11,9:06,42-36.13N,141-37.38E,133,8.13,
548,2023/12/11,9:07,42-35.93N,141-37.67E,132,8.243,
549,2023/12/11,9:08,42-35.73N,141-37.97E,132,8.295,
550,2023/12/11,9:09,42-35.51N,141-38.28E,133,8.473,
551,2023/12/11,9:10,42-35.29N,141-38.60E,133,8.438,
552,2023/12/11,9:11,42-35.07N,141-38.90E,134,8.522,
553,2023/12/11,9:12,42-34.85N,141-39.21E,134,8.559,
554,2023/12/11,9:13,42-34.62N,141-39.52E,134,8.569,
555,2023/12/11,9:14,42-34.36N,141-39.89E,134,8.541,
556,2023/12/11,9:15,42-34.12N,141-40.21E,134,8.504,
557,2023/12/11,9:16,42-33.89N,141-40.53E,134,8.478,
558,2023/12/11,9:17,42-33.70N,141-40.80E,134,8.473,
559,2023/12/11,9:18,42-33.46N,141-41.13E,134,8.479,
560,2023/12/11,9:19,42-33.21N,141-41.45E,135,8.495,
561,2023/12/11,9:20,42-32.97N,141-41.76E,136,8.513,
562,2023/12/11,9:21,42-32.71N,141-42.09E,136,8.525,
563,2023/12/11,9:22,42-32.47N,141-42.40E,136,8.494,
564,2023/12/11,9:23,42-32.22N,141-42.72E,136,8.442,
565,2023/12/11,9:24,42-31.96N,141-43.05E,136,8.431,
566,2023/12/11,9:25,42-31.69N,141-43.38E,136,8.418,
567,2023/12/11,9:26,42-31.41N,141-43.74E,136,8.415,
568,2023/12/11,9:27,42-31.16N,141-44.06E,136,8.454,
569,2023/12/11,9:28,42-30.90N,141-44.39E,136,8.496,
570,2023/12/11,9:29,42-30.64N,141-44.73E,136,8.508,
571,2023/12/11,9:30,42-30.37N,141-45.05E,136,8.503,
572,2023/12/11,9:31,42-30.11N,141-45.39E,136,8.492,
573,2023/12/11,9:32,42-29.85N,141-45.72E,136,8.486,
574,2023/12/11,9:33,42-29.60N,141-46.04E,136,8.496,
575,2023/12/11,9:34,42-29.33N,141-46.37E,136,8.528,
576,2023/12/11,9:35,42-29.07N,141-46.71E,136,8.556,
577,2023/12/11,9:36,42-28.80N,141-47.05E,136,8.563,
578,2023/12/11,9:37,42-28.55N,141-47.36E,136,8.552,
579,2023/12/11,9:38,42-28.28N,141-47.70E,136,8.558,
580,2023/12/11,9:39,42-28.01N,141-48.03E,136,8.613,
581,2023/12/11,9:40,42-27.75N,141-48.36E,137,8.707,
582,2023/12/11,9:41,42-27.52N,141-48.65E,137,8.753,
583,2023/12/11,9:42,42-27.25N,141-48.99E,137,8.784,
584,2023/12/11,9:43,42-26.98N,141-49.31E,136,8.683,
585,2023/12/11,9:44,42-26.72N,141-49.65E,137,8.714,
586,2023/12/11,9:45,42-26.46N,141-49.98E,137,8.821,
587,2023/12/11,9:46,42-26.14N,141-50.37E,137,8.885,
588,2023/12/11,9:47,42-25.90N,141-50.66E,137,8.905,
589,2023/12/11,9:48,42-25.63N,141-51.00E,137,8.887,
590,2023/12/11,9:49,42-25.36N,141-51.34E,137,8.82,
591,2023/12/11,9:50,42-25.09N,141-51.67E,137,8.755,
592,2023/12/11,9:51,42-24.81N,141-52.02E,137,8.651,
593,2023/12/11,9:52,42-24.55N,141-52.35E,137,8.574,
594,2023/12/11,9:53,42-24.27N,141-52.70E,135,8.559,
595,2023/12/11,9:54,42-24.01N,141-53.07E,133,8.565,
596,2023/12/11,9:55,42-23.76N,141-53.43E,133,8.571,
597,2023/12/11,9:56,42-23.47N,141-53.82E,135,8.606,
598,2023/12/11,9:57,42-23.22N,141-54.15E,135,8.61,
599,2023/12/11,9:58,42-22.94N,141-54.52E,135,8.611,
600,2023/12/11,9:59,42-22.67N,141-54.88E,135,8.627,
601,2023/12/11,10:00,42-22.40N,141-55.24E,135,8.721,
602,2023/12/11,10:01,42-22.13N,141-55.60E,135,8.764,
603,2023/12/11,10:02,42-21.85N,141-55.96E,135,8.778,
604,2023/12/11,10:03,42-21.57N,141-56.33E,135,8.761,
605,2023/12/11,10:04,42-21.29N,141-56.70E,135,8.72,
606,2023/12/11,10:05,42-21.02N,141-57.06E,135,8.652,
607,2023/12/11,10:06,42-20.75N,141-57.42E,135,8.616,
608,2023/12/11,10:07,42-20.47N,141-57.79E,135,8.595,
609,2023/12/11,10:08,42-20.21N,141-58.17E,132,8.36,
610,2023/12/11,10:09,42-19.96N,141-58.57E,127,8.101,
611,2023/12/11,10:10,42-19.74N,141-59.01E,123,7.946,
612,2023/12/11,10:11,42-19.55N,141-59.44E,120,7.907,
613,2023/12/11,10:12,42-19.37N,141-59.88E,118,7.898,
614,2023/12/11,10:13,42-19.18N,142-00.33E,118,7.894,
615,2023/12/11,10:14,42-19.00N,142-00.79E,118,7.897,
616,2023/12/11,10:15,42-18.82N,142-01.24E,118,7.918,
617,2023/12/11,10:16,42-18.64N,142-01.69E,118,7.923,
618,2023/12/11,10:17,42-18.45N,142-02.16E,118,7.937,
619,2023/12/11,10:18,42-18.27N,142-02.59E,119,7.947,
620,2023/12/11,10:19,42-18.08N,142-03.05E,118,7.974,
621,2023/12/11,10:20,42-17.90N,142-03.49E,118,7.985,
622,2023/12/11,10:21,42-17.70N,142-03.94E,121,8,
623,2023/12/11,10:22,42-17.49N,142-04.39E,122,8,
624,2023/12/11,10:23,42-17.29N,142-04.81E,122,8.004,
625,2023/12/11,10:24,42-17.09N,142-05.26E,120,8.016,
626,2023/12/11,10:25,42-16.91N,142-05.69E,119,8.022,
627,2023/12/11,10:26,42-16.73N,142-06.14E,118,8.022,
628,2023/12/11,10:27,42-16.54N,142-06.60E,118,8.03,
629,2023/12/11,10:28,42-16.36N,142-07.04E,118,8.027,
630,2023/12/11,10:29,42-16.18N,142-07.50E,118,8.025,
631,2023/12/11,10:30,42-16.00N,142-07.94E,118,8.024,
632,2023/12/11,10:31,42-15.82N,142-08.39E,118,8.017,
633,2023/12/11,10:32,42-15.63N,142-08.85E,118,8.016,
634,2023/12/11,10:33,42-15.45N,142-09.30E,118,8.011,
635,2023/12/11,10:34,42-15.27N,142-09.75E,118,8.028,
636,2023/12/11,10:35,42-15.08N,142-10.19E,118,8.05,
637,2023/12/11,10:36,42-14.90N,142-10.64E,118,8.063,
638,2023/12/11,10:37,42-14.72N,142-11.10E,118,8.078,
639,2023/12/11,10:38,42-14.53N,142-11.55E,119,8.075,
640,2023/12/11,10:39,42-14.34N,142-12.02E,119,8.076,
641,2023/12/11,10:40,42-14.17N,142-12.44E,118,8.078,
642,2023/12/11,10:41,42-13.98N,142-12.89E,119,8.081,
643,2023/12/11,10:42,42-13.79N,142-13.35E,119,8.084,
644,2023/12/11,10:43,42-13.61N,142-13.79E,119,8.081,
645,2023/12/11,10:44,42-13.42N,142-14.25E,119,8.089,
646,2023/12/11,10:45,42-13.23N,142-14.71E,118,8.106,
647,2023/12/11,10:46,42-13.05N,142-15.14E,119,8.105,
648,2023/12/11,10:47,42-12.87N,142-15.60E,118,8.103,
649,2023/12/11,10:48,42-12.68N,142-16.04E,119,8.101,
650,2023/12/11,10:49,42-12.49N,142-16.49E,119,8.109,
651,2023/12/11,10:50,42-12.31N,142-16.95E,118,8.105,
652,2023/12/11,10:51,42-12.13N,142-17.39E,118,8.101,
653,2023/12/11,10:52,42-11.94N,142-17.85E,119,8.103,
654,2023/12/11,10:53,42-11.76N,142-18.29E,119,8.102,
655,2023/12/11,10:54,42-11.57N,142-18.74E,118,8.114,
656,2023/12/11,10:55,42-11.39N,142-19.18E,117,8,
657,2023/12/11,10:56,42-11.21N,142-19.64E,118,7.762,
658,2023/12/11,10:57,42-11.03N,142-20.09E,117,7.75,
659,2023/12/11,10:58,42-10.86N,142-20.54E,118,7.812,
660,2023/12/11,10:59,42-10.67N,142-20.99E,119,7.784,
661,2023/12/11,11:00,42-10.49N,142-21.44E,118,7.715,
662,2023/12/11,11:01,42-10.31N,142-21.89E,118,7.685,
663,2023/12/11,11:02,42-10.12N,142-22.35E,118,7.686,
664,2023/12/11,11:03,42-09.94N,142-22.79E,120,7.677,
665,2023/12/11,11:04,42-09.74N,142-23.24E,120,7.712,
666,2023/12/11,11:05,42-09.55N,142-23.68E,120,7.737,
667,2023/12/11,11:06,42-09.36N,142-24.12E,120,7.72,
668,2023/12/11,11:07,42-09.16N,142-24.57E,120,7.757,
669,2023/12/11,11:08,42-08.96N,142-25.03E,119,7.84,
670,2023/12/11,11:09,42-08.77N,142-25.49E,119,7.946,
671,2023/12/11,11:10,42-08.59N,142-25.91E,120,7.998,
672,2023/12/11,11:11,42-08.40N,142-26.36E,120,8.047,
673,2023/12/11,11:12,42-08.20N,142-26.82E,120,8.081,
674,2023/12/11,11:13,42-08.01N,142-27.25E,119,8.102,
675,2023/12/11,11:14,42-07.81N,142-27.70E,120,8.109,
676,2023/12/11,11:15,42-07.62N,142-28.14E,119,8.095,
677,2023/12/11,11:16,42-07.43N,142-28.59E,120,8.095,
678,2023/12/11,11:17,42-07.24N,142-29.04E,119,8.102,
679,2023/12/11,11:18,42-07.04N,142-29.50E,120,8.093,
680,2023/12/11,11:19,42-06.84N,142-29.95E,120,8.073,
681,2023/12/11,11:20,42-06.65N,142-30.40E,120,8.051,
682,2023/12/11,11:21,42-06.47N,142-30.82E,120,8.022,
683,2023/12/11,11:22,42-06.26N,142-31.29E,120,7.998,
684,2023/12/11,11:23,42-06.07N,142-31.72E,120,7.976,
685,2023/12/11,11:24,42-05.87N,142-32.18E,120,7.968,
686,2023/12/11,11:25,42-05.68N,142-32.62E,120,7.969,
687,2023/12/11,11:26,42-05.48N,142-33.08E,120,7.959,
688,2023/12/11,11:27,42-05.27N,142-33.54E,120,7.962,
689,2023/12/11,11:28,42-05.07N,142-33.99E,120,7.959,
690,2023/12/11,11:29,42-04.87N,142-34.44E,121,7.956,
691,2023/12/11,11:30,42-04.68N,142-34.88E,120,7.953,
692,2023/12/11,11:31,42-04.47N,142-35.35E,121,7.941,
693,2023/12/11,11:32,42-04.27N,142-35.78E,121,7.923,
694,2023/12/11,11:33,42-04.07N,142-36.22E,121,7.92,
695,2023/12/11,11:34,42-03.87N,142-36.68E,121,7.907,
696,2023/12/11,11:35,42-03.66N,142-37.13E,121,7.854,
697,2023/12/11,11:36,42-03.46N,142-37.57E,121,7.782,
698,2023/12/11,11:37,42-03.25N,142-38.02E,121,7.744,
699,2023/12/11,11:38,42-03.05N,142-38.46E,121,7.902,
700,2023/12/11,11:39,42-02.84N,142-38.92E,121,7.973,
701,2023/12/11,11:40,42-02.64N,142-39.37E,121,7.99,
702,2023/12/11,11:41,42-02.44N,142-39.81E,121,7.995,
703,2023/12/11,11:42,42-02.23N,142-40.25E,123,8.001,
704,2023/12/11,11:43,42-02.02N,142-40.68E,124,7.991,
705,2023/12/11,11:44,42-01.79N,142-41.13E,124,7.979,
706,2023/12/11,11:45,42-01.58N,142-41.54E,124,7.98,
707,2023/12/11,11:46,42-01.36N,142-41.97E,124,7.979,
708,2023/12/11,11:47,42-01.13N,142-42.41E,124,7.976,
709,2023/12/11,11:48,42-00.90N,142-42.86E,124,7.968,
710,2023/12/11,11:49,42-00.69N,142-43.28E,124,7.954,
711,2023/12/11,11:50,42-00.48N,142-43.70E,124,7.954,
712,2023/12/11,11:51,42-00.26N,142-44.12E,124,7.95,
713,2023/12/11,11:52,42-00.04N,142-44.56E,123,7.934,
714,2023/12/11,11:53,41-59.83N,142-44.98E,123,7.917,
715,2023/12/11,11:54,41-59.62N,142-45.41E,123,7.958,
716,2023/12/11,11:55,41-59.41N,142-45.84E,123,7.997,
717,2023/12/11,11:56,41-59.20N,142-46.28E,123,8.01,
718,2023/12/11,11:57,41-58.99N,142-46.70E,123,8.011,
719,2023/12/11,11:58,41-58.77N,142-47.13E,123,8.01,
720,2023/12/11,11:59,41-58.57N,142-47.55E,122,8.062,
721,2023/12/11,12:00,41-58.35N,142-48.00E,123,8.14,
722,2023/12/11,12:01,41-58.15N,142-48.42E,122,8.16,
723,2023/12/11,12:02,41-57.94N,142-48.86E,122,8.151,
724,2023/12/11,12:03,41-57.71N,142-49.35E,122,8.127,
725,2023/12/11,12:04,41-57.50N,142-49.77E,122,8.112,
726,2023/12/11,12:05,41-57.29N,142-50.20E,123,8.111,
727,2023/12/11,12:06,41-57.09N,142-50.62E,122,8.105,
728,2023/12/11,12:07,41-56.87N,142-51.06E,123,8.113,
729,2023/12/11,12:08,41-56.66N,142-51.49E,123,8.109,
730,2023/12/11,12:09,41-56.46N,142-51.92E,122,8.1,
731,2023/12/11,12:10,41-56.26N,142-52.32E,123,8.093,
732,2023/12/11,12:11,41-56.05N,142-52.75E,123,8.08,
733,2023/12/11,12:12,41-55.85N,142-53.13E,124,8.059,
734,2023/12/11,12:13,41-55.64N,142-53.54E,123,8.031,
735,2023/12/11,12:14,41-55.42N,142-53.98E,123,7.995,
736,2023/12/11,12:15,41-55.21N,142-54.41E,123,7.936,
737,2023/12/11,12:16,41-54.99N,142-54.84E,123,7.905,
738,2023/12/11,12:17,41-54.79N,142-55.26E,123,7.885,
739,2023/12/11,12:18,41-54.58N,142-55.68E,122,7.88,
740,2023/12/11,12:19,41-54.37N,142-56.11E,123,7.873,
741,2023/12/11,12:20,41-54.16N,142-56.54E,123,7.86,
742,2023/12/11,12:21,41-53.95N,142-56.97E,123,7.853,
743,2023/12/11,12:22,41-53.74N,142-57.40E,123,7.843,
744,2023/12/11,12:23,41-53.53N,142-57.81E,123,7.837,
745,2023/12/11,12:24,41-53.32N,142-58.24E,123,7.826,
746,2023/12/11,12:25,41-53.11N,142-58.66E,123,7.82,
747,2023/12/11,12:26,41-52.90N,142-59.07E,123,7.809,
748,2023/12/11,12:27,41-52.68N,142-59.51E,123,7.806,
749,2023/12/11,12:28,41-52.48N,142-59.92E,123,7.802,
750,2023/12/11,12:29,41-52.25N,143-00.38E,123,7.794,
751,2023/12/11,12:30,41-52.02N,143-00.84E,123,7.784,
752,2023/12/11,12:31,41-51.83N,143-01.27E,120,7.779,
753,2023/12/11,12:32,41-51.66N,143-01.67E,118,7.766,
754,2023/12/11,12:33,41-51.49N,143-02.12E,116,7.753,
755,2023/12/11,12:34,41-51.33N,143-02.56E,114,7.742,
756,2023/12/11,12:35,41-51.19N,143-03.03E,111,7.726,
757,2023/12/11,12:36,41-51.08N,143-03.52E,105,7.713,
758,2023/12/11,12:37,41-50.99N,143-04.02E,101,7.697,
759,2023/12/11,12:38,41-50.93N,143-04.50E,100,7.685,
760,2023/12/11,12:39,41-50.87N,143-05.01E,97,7.673,
761,2023/12/11,12:40,41-50.83N,143-05.51E,96,7.666,
762,2023/12/11,12:41,41-50.78N,143-06.00E,96,7.674,
763,2023/12/11,12:42,41-50.74N,143-06.51E,96,7.682,
764,2023/12/11,12:43,41-50.70N,143-07.02E,96,7.738,
765,2023/12/11,12:44,41-50.66N,143-07.53E,96,7.859,
766,2023/12/11,12:45,41-50.62N,143-08.01E,96,7.982,
767,2023/12/11,12:46,41-50.57N,143-08.51E,97,8.079,
768,2023/12/11,12:47,41-50.53N,143-09.02E,96,8.127,
769,2023/12/11,12:48,41-50.49N,143-09.51E,96,8.122,
770,2023/12/11,12:49,41-50.44N,143-10.03E,97,8.095,
771,2023/12/11,12:50,41-50.40N,143-10.53E,96,8.03,
772,2023/12/11,12:51,41-50.36N,143-11.02E,95,7.947,
773,2023/12/11,12:52,41-50.34N,143-11.54E,91,7.799,
774,2023/12/11,12:53,41-50.34N,143-12.04E,90,7.617,
775,2023/12/11,12:54,41-50.34N,143-12.55E,91,7.602,
776,2023/12/11,12:55,41-50.33N,143-13.14E,91,7.536,
777,2023/12/11,12:56,41-50.32N,143-13.63E,91,7.476,
778,2023/12/11,12:57,41-50.31N,143-14.16E,90,7.418,
779,2023/12/11,12:58,41-50.30N,143-14.66E,91,7.38,
780,2023/12/11,12:59,41-50.30N,143-15.11E,91,7.359,
781,2023/12/11,13:00,41-50.30N,143-15.62E,89,7.401,
782,2023/12/11,13:01,41-50.32N,143-16.10E,83,7.468,
783,2023/12/11,13:02,41-50.39N,143-16.60E,79,7.508,
784,2023/12/11,13:03,41-50.50N,143-17.15E,73,7.532,
785,2023/12/11,13:04,41-50.62N,143-17.62E,70,7.545,
786,2023/12/11,13:05,41-50.74N,143-18.03E,68,7.534,
787,2023/12/11,13:06,41-50.89N,143-18.47E,66,7.52,
788,2023/12/11,13:07,41-51.04N,143-18.94E,66,7.513,
789,2023/12/11,13:08,41-51.18N,143-19.40E,67,7.418,
790,2023/12/11,13:09,41-51.33N,143-19.85E,66,7.427,
791,2023/12/11,13:10,41-51.48N,143-20.32E,67,7.439,
792,2023/12/11,13:11,41-51.62N,143-20.78E,66,7.433,
793,2023/12/11,13:12,41-51.79N,143-21.26E,64,7.459,
794,2023/12/11,13:13,41-51.94N,143-21.69E,64,7.45,
795,2023/12/11,13:14,41-52.11N,143-22.14E,64,7.408,
796,2023/12/11,13:15,41-52.29N,143-22.58E,59,7.39,
797,2023/12/11,13:16,41-52.50N,143-22.98E,52,7.394,
798,2023/12/11,13:17,41-52.73N,143-23.37E,50,7.429,
799,2023/12/11,13:18,41-52.96N,143-23.75E,50,7.425,
800,2023/12/11,13:19,41-53.21N,143-24.12E,46,7.409,
801,2023/12/11,13:20,41-53.48N,143-24.47E,43,7.379,
802,2023/12/11,13:21,41-53.76N,143-24.81E,41,7.354,
803,2023/12/11,13:22,41-54.04N,143-25.13E,40,7.362,
804,2023/12/11,13:23,41-54.34N,143-25.44E,36,7.427,
805,2023/12/11,13:24,41-54.63N,143-25.72E,36,7.449,
806,2023/12/11,13:25,41-54.95N,143-26.03E,35,7.445,
807,2023/12/11,13:26,41-55.23N,143-26.31E,35,7.449,
808,2023/12/11,13:27,41-55.55N,143-26.61E,35,7.491,
809,2023/12/11,13:28,41-55.84N,143-26.89E,35,7.471,
810,2023/12/11,13:29,41-56.15N,143-27.18E,35,7.444,
811,2023/12/11,13:30,41-56.47N,143-27.49E,35,7.445,
812,2023/12/11,13:31,41-56.77N,143-27.77E,35,7.467,
813,2023/12/11,13:32,41-57.08N,143-28.07E,35,7.555,
814,2023/12/11,13:33,41-57.39N,143-28.37E,35,7.652,
815,2023/12/11,13:34,41-57.69N,143-28.65E,35,7.733,
816,2023/12/11,13:35,41-58.00N,143-28.95E,35,7.761,
817,2023/12/11,13:36,41-58.30N,143-29.23E,35,7.735,
818,2023/12/11,13:37,41-58.62N,143-29.53E,35,7.671,
819,2023/12/11,13:38,41-58.92N,143-29.81E,34,7.625,
820,2023/12/11,13:39,41-59.23N,143-30.11E,35,7.651,
821,2023/12/11,13:40,41-59.54N,143-30.40E,35,7.693,
822,2023/12/11,13:41,41-59.84N,143-30.68E,34,7.72,
823,2023/12/11,13:42,42-00.16N,143-30.99E,35,7.734,
824,2023/12/11,13:43,42-00.45N,143-31.26E,35,7.74,
825,2023/12/11,13:44,42-00.77N,143-31.53E,31,7.745,
826,2023/12/11,13:45,42-01.09N,143-31.78E,29,7.742,
827,2023/12/11,13:46,42-01.41N,143-32.01E,28,7.727,
828,2023/12/11,13:47,42-01.74N,143-32.25E,28,7.719,
829,2023/12/11,13:48,42-02.06N,143-32.48E,28,7.692,
830,2023/12/11,13:49,42-02.38N,143-32.73E,29,7.688,
831,2023/12/11,13:50,42-02.71N,143-32.97E,28,7.685,
832,2023/12/11,13:51,42-03.02N,143-33.20E,28,7.689,
833,2023/12/11,13:52,42-03.36N,143-33.45E,28,7.699,
834,2023/12/11,13:53,42-03.70N,143-33.70E,28,7.717,
835,2023/12/11,13:54,42-04.00N,143-33.91E,28,7.738,
836,2023/12/11,13:55,42-04.34N,143-34.17E,28,7.761,
837,2023/12/11,13:56,42-04.65N,143-34.39E,28,7.793,
838,2023/12/11,13:57,42-04.98N,143-34.63E,28,7.859,
839,2023/12/11,13:58,42-05.30N,143-34.86E,27,7.883,
840,2023/12/11,13:59,42-05.62N,143-35.09E,28,7.907,
841,2023/12/11,14:00,42-05.96N,143-35.33E,28,7.92,
842,2023/12/11,14:01,42-06.28N,143-35.56E,28,7.907,
843,2023/12/11,14:02,42-06.60N,143-35.79E,28,7.915,
844,2023/12/11,14:03,42-06.93N,143-36.03E,28,7.952,
845,2023/12/11,14:04,42-07.26N,143-36.26E,27,8.069,
846,2023/12/11,14:05,42-07.59N,143-36.49E,27,8.072,
847,2023/12/11,14:06,42-07.92N,143-36.72E,27,8.117,
848,2023/12/11,14:07,42-08.25N,143-36.96E,28,8.256,
849,2023/12/11,14:08,42-08.57N,143-37.19E,27,8.35,
850,2023/12/11,14:09,42-08.90N,143-37.42E,27,8.44,
851,2023/12/11,14:10,42-09.24N,143-37.65E,27,8.475,
852,2023/12/11,14:11,42-09.55N,143-37.88E,27,8.497,
853,2023/12/11,14:12,42-09.88N,143-38.10E,27,8.511,
854,2023/12/11,14:13,42-10.22N,143-38.34E,27,8.519,
855,2023/12/11,14:14,42-10.54N,143-38.57E,27,8.53,
856,2023/12/11,14:15,42-10.87N,143-38.80E,27,8.531,
857,2023/12/11,14:16,42-11.20N,143-39.03E,27,8.531,
858,2023/12/11,14:17,42-11.53N,143-39.26E,27,8.531,
859,2023/12/11,14:18,42-11.91N,143-39.52E,27,8.534,
860,2023/12/11,14:19,42-12.23N,143-39.75E,27,8.533,
861,2023/12/11,14:20,42-12.57N,143-39.99E,27,8.536,
862,2023/12/11,14:21,42-12.85N,143-40.19E,27,8.513,
863,2023/12/11,14:22,42-13.17N,143-40.41E,28,8.484,
864,2023/12/11,14:23,42-13.50N,143-40.65E,28,8.265,
865,2023/12/11,14:24,42-13.82N,143-40.89E,28,8.143,
866,2023/12/11,14:25,42-14.15N,143-41.14E,29,8.107,
867,2023/12/11,14:26,42-14.47N,143-41.39E,30,8.088,
868,2023/12/11,14:27,42-14.78N,143-41.64E,30,8.081,
869,2023/12/11,14:28,42-15.11N,143-41.89E,30,8.069,
870,2023/12/11,14:29,42-15.43N,143-42.15E,30,8.051,
871,2023/12/11,14:30,42-15.75N,143-42.40E,30,8.046,
872,2023/12/11,14:31,42-16.06N,143-42.65E,31,8.044,
873,2023/12/11,14:32,42-16.37N,143-42.91E,33,8.044,
874,2023/12/11,14:33,42-16.69N,143-43.19E,33,8.048,
875,2023/12/11,14:34,42-16.99N,143-43.46E,33,8.049,
876,2023/12/11,14:35,42-17.31N,143-43.74E,33,8.056,
877,2023/12/11,14:36,42-17.62N,143-44.02E,33,8.069,
878,2023/12/11,14:37,42-17.92N,143-44.29E,33,8.083,
879,2023/12/11,14:38,42-18.23N,143-44.57E,33,8.084,
880,2023/12/11,14:39,42-18.53N,143-44.85E,33,8.104,
881,2023/12/11,14:40,42-18.84N,143-45.12E,33,8.282,
882,2023/12/11,14:41,42-19.14N,143-45.39E,33,8.353,
883,2023/12/11,14:42,42-19.44N,143-45.66E,33,8.422,
884,2023/12/11,14:43,42-19.75N,143-45.94E,33,8.465,
885,2023/12/11,14:44,42-20.04N,143-46.21E,34,8.466,
886,2023/12/11,14:45,42-20.36N,143-46.49E,33,8.469,
887,2023/12/11,14:46,42-20.65N,143-46.75E,33,8.427,
888,2023/12/11,14:47,42-20.95N,143-47.03E,33,8.355,
889,2023/12/11,14:48,42-21.26N,143-47.31E,33,8.281,
890,2023/12/11,14:49,42-21.57N,143-47.59E,33,8.227,
891,2023/12/11,14:50,42-21.86N,143-47.85E,34,8.142,
892,2023/12/11,14:51,42-22.17N,143-48.13E,34,8.113,
893,2023/12/11,14:52,42-22.46N,143-48.39E,33,8.126,
894,2023/12/11,14:53,42-22.77N,143-48.68E,34,8.142,
895,2023/12/11,14:54,42-23.06N,143-48.95E,34,8.155,
896,2023/12/11,14:55,42-23.37N,143-49.23E,33,8.165,
897,2023/12/11,14:56,42-23.67N,143-49.50E,34,8.183,
898,2023/12/11,14:57,42-23.97N,143-49.77E,34,8.197,
899,2023/12/11,14:58,42-24.28N,143-50.06E,34,8.207,
900,2023/12/11,14:59,42-24.57N,143-50.33E,34,8.226,
901,2023/12/11,15:00,42-24.88N,143-50.61E,34,8.231,
902,2023/12/11,15:01,42-25.17N,143-50.88E,34,8.235,
903,2023/12/11,15:02,42-25.46N,143-51.15E,35,8.23,
904,2023/12/11,15:03,42-25.74N,143-51.43E,35,8.197,
905,2023/12/11,15:04,42-26.03N,143-51.70E,35,8.15,
906,2023/12/11,15:05,42-26.31N,143-51.97E,35,8.11,
907,2023/12/11,15:06,42-26.57N,143-52.22E,35,8.063,
908,2023/12/11,15:07,42-26.85N,143-52.51E,37,8.054,
909,2023/12/11,15:08,42-27.12N,143-52.80E,39,8.059,
910,2023/12/11,15:09,42-27.38N,143-53.09E,39,8.073,
911,2023/12/11,15:10,42-27.65N,143-53.39E,39,8.21,
912,2023/12/11,15:11,42-27.91N,143-53.68E,39,8.263,
913,2023/12/11,15:12,42-28.18N,143-53.97E,39,8.272,
914,2023/12/11,15:13,42-28.45N,143-54.26E,37,8.258,
915,2023/12/11,15:14,42-28.71N,143-54.53E,35,8.216,
916,2023/12/11,15:15,42-29.01N,143-54.78E,31,8.173,
917,2023/12/11,15:16,42-29.30N,143-55.00E,27,8.172,
918,2023/12/11,15:17,42-29.61N,143-55.19E,24,8.175,
919,2023/12/11,15:18,42-29.93N,143-55.37E,21,8.161,
920,2023/12/11,15:19,42-30.24N,143-55.53E,20,8.17,
921,2023/12/11,15:20,42-30.58N,143-55.70E,19,8.179,
922,2023/12/11,15:21,42-30.89N,143-55.85E,20,8.215,
923,2023/12/11,15:22,42-31.22N,143-56.01E,20,8.239,
924,2023/12/11,15:23,42-31.55N,143-56.17E,19,8.273,
925,2023/12/11,15:24,42-31.87N,143-56.32E,19,8.303,
926,2023/12/11,15:25,42-32.21N,143-56.48E,19,8.318,
927,2023/12/11,15:26,42-32.53N,143-56.64E,19,8.325,
928,2023/12/11,15:27,42-32.86N,143-56.80E,19,8.321,
929,2023/12/11,15:28,42-33.20N,143-56.97E,20,8.309,
930,2023/12/11,15:29,42-33.51N,143-57.14E,22,8.309,
931,2023/12/11,15:30,42-33.83N,143-57.33E,24,8.35,
932,2023/12/11,15:31,42-34.14N,143-57.53E,25,8.364,
933,2023/12/11,15:32,42-34.44N,143-57.73E,25,8.364,
934,2023/12/11,15:33,42-34.74N,143-57.92E,25,8.355,
935,2023/12/11,15:34,42-35.03N,143-58.12E,26,8.325,
936,2023/12/11,15:35,42-35.31N,143-58.30E,26,8.303,
937,2023/12/11,15:36,42-35.60N,143-58.50E,26,8.274,
938,2023/12/11,15:37,42-35.90N,143-58.69E,26,8.281,
939,2023/12/11,15:38,42-36.19N,143-58.90E,28,8.289,
940,2023/12/11,15:39,42-36.46N,143-59.11E,29,8.291,
941,2023/12/11,15:40,42-36.74N,143-59.33E,29,8.347,
942,2023/12/11,15:41,42-37.02N,143-59.54E,29,8.368,
943,2023/12/11,15:42,42-37.30N,143-59.76E,30,8.354,
944,2023/12/11,15:43,42-37.59N,143-59.99E,30,8.325,
945,2023/12/11,15:44,42-37.86N,144-00.19E,26,8.309,
946,2023/12/11,15:45,42-38.15N,144-00.38E,25,8.322,
947,2023/12/11,15:46,42-38.45N,144-00.56E,25,8.309,
948,2023/12/11,15:47,42-38.74N,144-00.75E,25,8.281,
949,2023/12/11,15:48,42-39.04N,144-00.94E,25,8.26,
950,2023/12/11,15:49,42-39.32N,144-01.12E,25,8.231,
951,2023/12/11,15:50,42-39.62N,144-01.31E,25,8.196,
952,2023/12/11,15:51,42-39.92N,144-01.50E,25,8.232,
953,2023/12/11,15:52,42-40.20N,144-01.68E,25,8.225,
954,2023/12/11,15:53,42-40.50N,144-01.87E,25,8.222,
955,2023/12/11,15:54,42-40.79N,144-02.06E,24,8.14,
956,2023/12/11,15:55,42-41.07N,144-02.24E,24,8.073,
957,2023/12/11,15:56,42-41.37N,144-02.42E,25,8.06,
958,2023/12/11,15:57,42-41.65N,144-02.60E,24,8.055,
959,2023/12/11,15:58,42-41.96N,144-02.79E,24,8.068,
960,2023/12/11,15:59,42-42.23N,144-02.96E,24,8.092,
961,2023/12/11,16:00,42-42.52N,144-03.14E,24,8.095,
962,2023/12/11,16:01,42-42.82N,144-03.33E,26,8.088,
963,2023/12/11,16:02,42-43.11N,144-03.53E,27,8.082,
964,2023/12/11,16:03,42-43.38N,144-03.73E,27,8.075,
965,2023/12/11,16:04,42-43.66N,144-03.93E,27,8.077,
966,2023/12/11,16:05,42-43.95N,144-04.13E,28,8.053,
967,2023/12/11,16:06,42-44.23N,144-04.34E,28,8.046,
968,2023/12/11,16:07,42-44.50N,144-04.54E,28,8.049,
969,2023/12/11,16:08,42-44.79N,144-04.75E,28,8.054,
970,2023/12/11,16:09,42-45.07N,144-04.95E,28,8.049,
971,2023/12/11,16:10,42-45.35N,144-05.15E,28,8.051,
972,2023/12/11,16:11,42-45.64N,144-05.36E,28,8.047,
973,2023/12/11,16:12,42-45.92N,144-05.57E,28,8.043,
974,2023/12/11,16:13,42-46.21N,144-05.78E,28,8.042,
975,2023/12/11,16:14,42-46.48N,144-05.98E,29,8.035,
976,2023/12/11,16:15,42-46.76N,144-06.20E,30,8.04,
977,2023/12/11,16:16,42-47.03N,144-06.42E,30,8.039,
978,2023/12/11,16:17,42-47.31N,144-06.64E,29,8.036,
979,2023/12/11,16:18,42-47.60N,144-06.87E,30,8.046,
980,2023/12/11,16:19,42-47.88N,144-07.08E,30,8.055,
981,2023/12/11,16:20,42-48.14N,144-07.29E,29,8.063,
982,2023/12/11,16:21,42-48.43N,144-07.51E,30,8.067,
983,2023/12/11,16:22,42-48.70N,144-07.73E,30,8.08,
984,2023/12/11,16:23,42-48.99N,144-07.96E,30,8.093,
985,2023/12/11,16:24,42-49.27N,144-08.17E,29,8.091,
986,2023/12/11,16:25,42-49.55N,144-08.39E,29,8.071,
987,2023/12/11,16:26,42-49.86N,144-08.62E,29,8.063,
988,2023/12/11,16:27,42-50.12N,144-08.83E,30,8.055,
989,2023/12/11,16:28,42-50.41N,144-09.06E,29,8.035,
990,2023/12/11,16:29,42-50.68N,144-09.27E,29,7.991,
991,2023/12/11,16:30,42-50.96N,144-09.48E,29,7.978,
992,2023/12/11,16:31,42-51.25N,144-09.71E,29,7.969,